sat.trackr.live / text

‹ back to catalog

STARLINK-2559

NORAD 48298 · 2021-036Y

PAYLOAD ACTIVE UNKNOWN

§ Identity

Operator
Country
US
Launch date
2021-04-29
Launch site
AFETR
Launch vehicle
Mass (kg)
RCS (m²)

Purposes: comms

External: N2YO · Heavens-Above · Gunter

§ Orbital elements

Epoch: 2026-09-19T23:18:37.003968Z

Period
93.28 min
Inclination
53.1521°
Eccentricity
0.0001761
Mean motion
15.43674235 rev/d
Perigee alt
434.1 km
Apogee alt
436.5 km
Semi-major
6,813.4 km
B*
9.7292e-4
RAAN
245.3270°
Arg perigee
54.8909°
Mean anomaly
305.2262°
Rev number
29,826

§ Raw data

STARLINK-25591 48298U 21036Y   26262.97126162  .00044389  00000+0  97292-3 0  99942 48298  53.1521 245.3270 0001761  54.8909 305.2262 15.43674235298260

JSON: /api/v1/satellites/48298 · /tle

For live sub-satellite position, see the globe view (requires WebGL).

§ Visibility from observer

Set your observer location to see the next 7 days of passes ≥ 10°. The values pass through the URL so the page stays shareable.

No JS? Fill the form by hand. The geolocation button needs JavaScript.